(215093) = 1999 XJ260 = 6823 P-L

Discovered at Palomar on 1960-09-24 by C. J. van Houten, I. van Houten-Groeneveld, and T. Gehrels.

Orbit

Orbit type: Main Belt

Note: WebGL enabled browser required.

epoch2024-03-31.0
epoch JD2460400.5
perihelion date2022-08-13.73380
perihelion JD2459805.23380
argument of perihelion (°)217.55026
ascending node (°)140.28444
inclination (°)1.78263
eccentricity0.1941820
perihelion distance (AU)1.9859432
Tisserand w.r.t. Jupiter3.5
ΔV w.r.t. Earth (km/sec)8.8
semimajor axis (AU)2.4645060
mean anomaly (°)151.64226
mean daily motion (°/day)0.25474700
aphelion distance (AU)2.943
period (years)3.87
P-vector [x]0.99909751
P-vector [y]-0.02733179
P-vector [z]-0.03251381
Q-vector [x]0.03753762
Q-vector [y]0.92636649
Q-vector [z]0.37474799
absolute magnitude17.1
phase slope0.15
uncertainty0
referenceMPEC 2024-E109
observations used679
oppositions19
arc length (days)23149
first opposition used1960
last opposition used2024
residual rms (arc-secs)0.59
perturbers coarse indicatorM-v
perturbers precise indicator003Ek
first observation date used1960-09-24.0
last observation date used2024-02-10.0
computer nameMPCLINUX
JD of orbit computation2456966.828508
perihelion JD uncertainty (days)3.5333E-05
argument of perihelion uncertainty (°)7.4975E-05
ascending node uncertainty (°)7.4222E-05
inclination uncertainty (°)4.1255E-06
eccentricity uncertainty 3.5365E-08
perihelion distance uncertainty (AU)8.7679E-08
Minimum Orbit Intersection Distances (in AU)
for orbit epoch: 2460400.5, reference: E2024-G88
Mercury1.61567
Venus1.26011
Earth0.98226
Mars0.59103
Jupiter2.49178
Saturn6.39794
Uranus15.505
Neptune27.5287

Observations

685 total observations over interval: 1960 09 24.32430 – 2024 02 10.571426
These data are available for download (format description).

Date (UT) J2000 RA J2000 Dec Magn Location Ref
1960 09 24.32430 00 14 39.80 -01 01 51.8 20.0   675 – Palomar Mountain MPS 284599
1960 09 24.32431 00 14 39.76 -01 01 51.5 19.5   675 – Palomar Mountain MPS 16084
1960 09 24.35000 00 14 38.50 -01 02 01.4 19.7   675 – Palomar Mountain MPS 284599
1960 09 24.38750 00 14 36.61 -01 02 15.5 19.2   675 – Palomar Mountain MPS 284599
1960 09 24.41180 00 14 35.39 -01 02 24.4 19.6   675 – Palomar Mountain MPS 284599
1960 09 26.26528 00 13 08.17 -01 13 57.8 19.4   675 – Palomar Mountain MPS 284599
1960 09 26.28541 00 13 07.20 -01 14 04.8 19.2   675 – Palomar Mountain MPS 284599
1960 09 27.30972 00 12 18.85 -01 20 23.9 19.2 V 675 – Palomar Mountain MPS 284599
1960 09 27.34237 00 12 17.19 -01 20 35.5 18.7 V 675 – Palomar Mountain MPS 284599
1960 09 28.31736 00 11 31.43 -01 26 32.7 18.8   675 – Palomar Mountain MPS 284599
1960 09 28.33750 00 11 30.46 -01 26 39.5 19.2   675 – Palomar Mountain MPS 284599
1960 10 22.21181 23 57 07.45 -03 10 21.8 19.9   675 – Palomar Mountain MPS 284599
1960 10 22.23403 23 57 06.86 -03 10 24.9 19.4   675 – Palomar Mountain MPS 284599
1960 10 25.22917 23 56 17.04 -03 15 24.7 19.0 V 675 – Palomar Mountain MPS 284599
1960 10 25.25348 23 56 16.62 -03 15 26.0 20.0 V 675 – Palomar Mountain MPS 284599
1960 10 26.29306 23 56 03.08 -03 16 40.7 19.6   675 – Palomar Mountain MPS 284599
1960 10 26.31528 23 56 02.78 -03 16 42.1 20.3   675 – Palomar Mountain MPS 284599
1991 10 06.30260 00 58 06.34 +03 06 22.0 19.7 V 691 – Steward Observatory, Kitt Peak-Spacewatch MPS 78559
1991 10 06.32325 00 58 05.22 +03 06 14.7 19.6 V 691 – Steward Observatory, Kitt Peak-Spacewatch MPS 78559
1991 10 06.34645 00 58 04.01 +03 06 06.4 19.6 V 691 – Steward Observatory, Kitt Peak-Spacewatch MPS 78559
1999 12 08.27693 04 03 56.33 +17 42 13.1 19.9   704 – Lincoln Laboratory ETS, New Mexico MPS 16725
1999 12 08.28936 04 03 55.62 +17 42 12.2 20.3   704 – Lincoln Laboratory ETS, New Mexico MPS 16725
1999 12 08.30171 04 03 54.90 +17 42 11.0 19.8   704 – Lincoln Laboratory ETS, New Mexico MPS 16725
1999 12 08.31409 04 03 54.11 +17 42 07.9 20.1   704 – Lincoln Laboratory ETS, New Mexico MPS 16725
1999 12 17.14433 03 56 31.67 +17 29 42.5 20.3 V 691 – Steward Observatory, Kitt Peak-Spacewatch MPS 16725
1999 12 17.16727 03 56 30.62 +17 29 41.2 20.0 V 691 – Steward Observatory, Kitt Peak-Spacewatch MPS 16725
1999 12 17.18940 03 56 29.62 +17 29 40.0 20.2 V 691 – Steward Observatory, Kitt Peak-Spacewatch MPS 16725
2001 02 20.435100 11 33 47.322 +04 03 09.80 21.27 V 645 – Apache Point-Sloan Digital Sky Survey MPS 108190
2001 02 20.438572 11 33 47.163 +04 03 10.97 22.08   645 – Apache Point-Sloan Digital Sky Survey MPS 108190
2004 01 13.10470 05 13 15.59 +20 53 38.5 21.8 V 691 – Steward Observatory, Kitt Peak-Spacewatch MPS 96663
2004 01 13.13231 05 13 14.62 +20 53 39.1 21.7 V 691 – Steward Observatory, Kitt Peak-Spacewatch MPS 96663
2004 01 13.15860 05 13 13.70 +20 53 40.1 20.9 V 691 – Steward Observatory, Kitt Peak-Spacewatch MPS 96663
2005 03 10.33683 12 05 28.37 +01 08 55.3 20.2 R G96 – Mt. Lemmon Survey MPS 128171
2005 03 10.34392 12 05 28.05 +01 08 58.1 20.5 R G96 – Mt. Lemmon Survey MPS 128171
2005 03 10.35105 12 05 27.64 +01 09 00.7 18.3 R G96 – Mt. Lemmon Survey MPS 128171
2005 03 10.35817 12 05 27.26 +01 09 03.0 20.4 R G96 – Mt. Lemmon Survey MPS 128171
2007 12 04.38710 07 14 12.77 +20 18 18.2 20.2 V 691 – Steward Observatory, Kitt Peak-Spacewatch MPS 229991
2007 12 04.40473 07 14 12.03 +20 18 19.7 20.3 V 691 – Steward Observatory, Kitt Peak-Spacewatch MPS 229991
2007 12 04.42236 07 14 11.32 +20 18 21.1 20.4 V 691 – Steward Observatory, Kitt Peak-Spacewatch MPS 229991
2007 12 16.37174 07 04 26.94 +20 36 05.4 20.7 V 691 – Steward Observatory, Kitt Peak-Spacewatch MPS 231372
2007 12 16.39283 07 04 25.69 +20 36 07.6 20.5 V 691 – Steward Observatory, Kitt Peak-Spacewatch MPS 231372
2007 12 16.41146 07 04 24.58 +20 36 09.6 20.4 V 691 – Steward Observatory, Kitt Peak-Spacewatch MPS 231372
2009 03 21.35005 12 42 27.07 -02 25 57.6 21.5 V G96 – Mt. Lemmon Survey MPS 281468
2009 03 21.35557 12 42 26.78 -02 25 55.4 21.1 V G96 – Mt. Lemmon Survey MPS 281468
2009 03 21.36108 12 42 26.49 -02 25 53.8 21.1 V G96 – Mt. Lemmon Survey MPS 281468
2009 03 21.36659 12 42 26.20 -02 25 51.8 21.2 V G96 – Mt. Lemmon Survey MPS 281468
2009 03 29.20114 12 35 37.58 -01 38 34.0   691 – Steward Observatory, Kitt Peak-Spacewatch MPS 282789
2009 03 29.21627 12 35 36.75 -01 38 28.4   691 – Steward Observatory, Kitt Peak-Spacewatch MPS 282789
2009 03 29.23139 12 35 35.91 -01 38 22.4   691 – Steward Observatory, Kitt Peak-Spacewatch MPS 282789
2010 07 05.33258 20 11 33.25 -18 28 05.3 19.7 V G96 – Mt. Lemmon Survey MPS 338835
2010 07 05.33917 20 11 32.96 -18 28 06.4 19.7 V G96 – Mt. Lemmon Survey MPS 338835
2010 07 05.34582 20 11 32.67 -18 28 07.5 19.7 V G96 – Mt. Lemmon Survey MPS 338835
2010 07 05.35238 20 11 32.31 -18 28 09.0 19.8 V G96 – Mt. Lemmon Survey MPS 338835
2011 12 27.36593 08 08 50.56 +18 44 52.5 21.1 V G96 – Mt. Lemmon Survey MPS 405764
2011 12 27.37450 08 08 50.10 +18 44 53.7 21.6 V G96 – Mt. Lemmon Survey MPS 405764
2011 12 27.38323 08 08 49.63 +18 44 55.3 21.1 V G96 – Mt. Lemmon Survey MPS 405764
2011 12 27.39189 08 08 49.16 +18 44 57.1 20.6 V G96 – Mt. Lemmon Survey MPS 405764
2011 12 28.32409 08 08 00.70 +18 47 45.9   691 – Steward Observatory, Kitt Peak-Spacewatch MPS 405764
2011 12 28.34204 08 07 59.70 +18 47 49.2   691 – Steward Observatory, Kitt Peak-Spacewatch MPS 405764
2011 12 28.35997 08 07 58.69 +18 47 52.3   691 – Steward Observatory, Kitt Peak-Spacewatch MPS 405764
2012 01 04.37750 08 01 21.03 +19 10 32.4 20.1 V G96 – Mt. Lemmon Survey MPS 406953
2012 01 04.38437 08 01 20.64 +19 10 33.3 20.7 V G96 – Mt. Lemmon Survey MPS 406953
2012 01 04.39130 08 01 20.20 +19 10 35.1 20.8 V G96 – Mt. Lemmon Survey MPS 406953
2012 01 04.39817 08 01 19.81 +19 10 36.1 21.0 V G96 – Mt. Lemmon Survey MPS 406953
2012 01 05.31262 08 00 24.66 +19 13 42.9 20.3 V 691 – Steward Observatory, Kitt Peak-Spacewatch MPS 406953
2012 01 05.33041 08 00 23.55 +19 13 46.5 20.4 V 691 – Steward Observatory, Kitt Peak-Spacewatch MPS 406953
2012 01 05.34819 08 00 22.41 +19 13 49.8 20.4 V 691 – Steward Observatory, Kitt Peak-Spacewatch MPS 406953
2012 01 18.32077 07 46 38.56 +19 58 43.3 20.2 V G96 – Mt. Lemmon Survey MPS 408615
2012 01 18.32683 07 46 38.17 +19 58 44.6 20.0 V G96 – Mt. Lemmon Survey MPS 408615
2012 01 18.33285 07 46 37.77 +19 58 45.9 20.2 V G96 – Mt. Lemmon Survey MPS 408615
2012 01 18.33880 07 46 37.38 +19 58 47.1 20.2 V G96 – Mt. Lemmon Survey MPS 408615
2012 01 18.43535 07 46 31.04 +19 59 06.3 20.1 V G96 – Mt. Lemmon Survey MPS 408615
2012 01 18.43651 07 46 30.97 +19 59 06.6 20.1 V G96 – Mt. Lemmon Survey MPS 408615
2012 01 18.43767 07 46 30.86 +19 59 06.7 20.0 V G96 – Mt. Lemmon Survey MPS 408615
2012 01 18.43885 07 46 30.79 +19 59 07.2 20.1 V G96 – Mt. Lemmon Survey MPS 408615
2012 01 25.29808 07 39 22.379 +20 21 39.31 20.3 i F51 – Pan-STARRS 1, Haleakala MPS 409938
2012 01 25.31135 07 39 21.547 +20 21 41.89 20.4 i F51 – Pan-STARRS 1, Haleakala MPS 409938
2012 01 26.20476 07 38 27.88 +20 24 28.0 20.6 V G96 – Mt. Lemmon Survey MPS 409938
2012 01 26.20535 07 38 27.85 +20 24 28.5 20.8 V G96 – Mt. Lemmon Survey MPS 409938
2012 01 26.21002 07 38 27.56 +20 24 28.7 19.7 V G96 – Mt. Lemmon Survey MPS 409938
2012 01 26.21060 07 38 27.52 +20 24 29.8 21.2 V G96 – Mt. Lemmon Survey MPS 409938
2012 01 26.21530 07 38 27.24 +20 24 30.7 20.7 V G96 – Mt. Lemmon Survey MPS 409938
2012 01 26.21589 07 38 27.24 +20 24 30.6 21.0 V G96 – Mt. Lemmon Survey MPS 409938
2012 01 26.22115 07 38 26.88 +20 24 31.5 21.1 V G96 – Mt. Lemmon Survey MPS 409938
2012 02 10.25717 07 25 41.953 +21 04 32.32 20.6 i F51 – Pan-STARRS 1, Haleakala MPS 412766
2012 02 10.27037 07 25 41.399 +21 04 34.22 20.5 i F51 – Pan-STARRS 1, Haleakala MPS 412766
2013 04 01.36889 13 21 05.90 -06 05 09.4 20.8 V G96 – Mt. Lemmon Survey MPS 462496
2013 04 01.37899 13 21 05.36 -06 05 06.7 21.3 V G96 – Mt. Lemmon Survey MPS 462496
2013 04 01.38919 13 21 04.82 -06 05 03.2 21.1 V G96 – Mt. Lemmon Survey MPS 462497
2013 04 01.39979 13 21 04.24 -06 05 00.1 21.7 V G96 – Mt. Lemmon Survey MPS 462497
